User: anonymous   Login
Location: Hackbridge
(51.3833°N, 0.1500°W)
Time: 05:32:12
(UTC+00:00)
Language:

STARLINK-65 - Orbit

View from above orbital plane
View from above orbital plane
View from above satellite
View from above satellite

Ground track
Ground track

The orbit data is extracted from the following two-line orbital elements,

1 44276U 19029AT  19348.25002315 -.00001365  00000-0 -61191-4 0  9996
2 44276  53.0040 334.7676 0001239  77.3532 220.1468 15.12144830 30921
Epoch (UTC): 14 December 2019 06:00:02
Eccentricity: 0.0001239
inclination: 53.0040°
perigee height: 529 km
apogee height: 530 km
right ascension of ascending node: 334.7676°
argument of perigee: 77.3532°
revolutions per day: 15.12144830
mean anomaly at epoch: 220.1468°
orbit number at epoch: 3092

The dashed part of the orbit path shows where the satellite is in the earth's shadow,  

DLR